カタログに戻る

IO-86

運用中アマチュア無線LEO
NORAD 40931·PAYLOAD·🇮🇩 Indonesia

打ち上げ Sep 28, 2015 から Satish Dhawan Space Centre

Loading…

次のパス (今後24時間)

TLE

古いSource: Tim BRIN PR Teksat

元期: Aug 3, 2026, 07:32 UTC

1 40931U 00000    26215.31405093  .00000000  00000-0 -12415-2 0    07
2 40931   5.9978 192.1020 0013293 316.0159  40.6094 14.79250695 40639

AllMySatでIO-86をリアルタイム追跡

Download on the App Store